Regional Weather Roundup
Issued by NWS Little Rock, AR

Home | Current Version | Previous Version | Graphics & Text | Print | Product List | Glossary On
Versions: 1 2 3 4 5 6 7 8 9 10 11 12 13 14 15 16 17 18 19 20 21 22 23 24 25 26 27 28 29 30 31 32 33 34 35 36 37 38 39 40 41 42 43 44 45 46 47 48 49 50
000
ASUS44 KLZK 020605
RWRLZK

WEATHER ROUNDUP FOR ARKANSAS
NATIONAL WEATHER SERVICE LITTLE ROCK AR
100 AM CDT TUE JUN 02 2015

NOTE: "FAIR" INDICATES FEW OR NO CLOUDS BELOW 12,000 FEET WITH NO
SIGNIFICANT WEATHER AND/OR OBSTRUCTIONS TO VISIBILITY.

ARZ001-003-010-029-020700-
NORTHWEST ARKANSAS

CITY           SKY/WX    TMP DP  RH WIND       PRES   REMARKS
FAYETTEVILLE   CLEAR     59  58  96 S3        30.08F
6HR MIN TEMP:  58; 6HR MAX TEMP:  76;

FORT SMITH     CLEAR     67  63  87 E7        30.05S
6HR MIN TEMP:  67; 6HR MAX TEMP:  82;

HARRISON       CLOUDY    62  59  90 E6        30.12S
6HR MIN TEMP:  62; 6HR MAX TEMP:  70;

BENTONVILLE    CLEAR    N/A N/A N/A E6        30.09S
ROGERS         CLEAR     61  58  90 E7        30.10S
6HR MIN TEMP:  60; 6HR MAX TEMP:  73;

SILOAM SPGS    CLEAR     63  55  77 CALM      30.09S
6HR MIN TEMP:  63; 6HR MAX TEMP:  75;

HIGHFILL       CLEAR     61  59  93 NE3       30.08S
6HR MIN TEMP:  61; 6HR MAX TEMP:  76;

$$

ARZ004-005-016-020700-
NORTH CENTRAL ARKANSAS

CITY           SKY/WX    TMP DP  RH WIND       PRES   REMARKS
BATESVILLE     MOCLDY    63  57  82 E3        30.10F
6HR MIN TEMP:  61; 6HR MAX TEMP:  72;

FLIPPIN        MOCLDY    63  57  82 E6        30.10S
6HR MIN TEMP:  63; 6HR MAX TEMP:  70;

MTN HOME       CLEAR     60  57  89 E5        30.11F
6HR MIN TEMP:  60; 6HR MAX TEMP:  68;

$$

ARZ040-041-020700-
WEST CENTRAL ARKANSAS

CITY           SKY/WX    TMP DP  RH WIND       PRES   REMARKS
MENA           MOCLDY    68  66  94 CALM      30.08S
MOUNT IDA      CLOUDY    67  65  93 CALM      30.06S
6HR MIN TEMP:  67; 6HR MAX TEMP:  75;

$$

ARZ009-017-025-026-028-020700-
NORTHEAST ARKANSAS

CITY           SKY/WX    TMP DP  RH WIND       PRES   REMARKS
CORNING          N/A     63  59  88 NE7       30.11F
JONESBORO      CLOUDY    62  60  93 NE5       30.10S
6HR MIN TEMP:  60; 6HR MAX TEMP:  69;

NEWPORT        CLOUDY    63  62  96 NE8       30.11S
6HR MIN TEMP:  63; 6HR MAX TEMP:  70;

WALNUT RIDGE   CLEAR     61  57  88 NE3       30.11S
6HR MIN TEMP:  61; 6HR MAX TEMP:  68;

BLYTHEVILLE    CLOUDY    64  62  93 NE8       30.09S
6HR MIN TEMP:  63; 6HR MAX TEMP:  70;

$$

ARZ022-023-033-042-044-020700-
CENTRAL ARKANSAS

CITY           SKY/WX    TMP DP  RH WIND       PRES   REMARKS
LITTLE ROCK    CLOUDY    68  60  75 E6        30.09S
6HR MIN TEMP:  66; 6HR MAX TEMP:  74;

N LITTLE ROCK    N/A     67  63  89 E7        30.09S
6HR MIN TEMP:  65; 6HR MAX TEMP:  73;

JACKSONVILLE   CLOUDY    66  63  92 E2        30.08S
6HR MIN TEMP:  65; 6HR MAX TEMP:  73; 6HR PCP: TRACE;

SEARCY         CLOUDY    65  61  87 NE9       30.10F
6HR MIN TEMP:  64; 6HR MAX TEMP:  71;

HOT SPRINGS    PTCLDY    67  62  84 E7        30.07F
6HR MIN TEMP:  67; 6HR MAX TEMP:  76;

RUSSELLVILLE   CLOUDY    68  62  81 E5        30.07F
6HR MIN TEMP:  68; 6HR MAX TEMP:  77;

CLINTON        CLOUDY    64  63  94 CALM      30.11S
$$

ARZ036-020700-
EAST ARKANSAS

CITY           SKY/WX    TMP DP  RH WIND       PRES   REMARKS
WEST MEMPHIS   CLEAR     62  61  96 N6        30.08S
6HR MIN TEMP:  62; 6HR MAX TEMP:  71;

$$

ARZ050-053-066-070-073-020700-
SOUTHWEST ARKANSAS

CITY           SKY/WX    TMP DP  RH WIND       PRES   REMARKS
ARKADELPHIA    MOCLDY    69  68  97 NE3       30.07F
6HR MIN TEMP:  68; 6HR MAX TEMP:  79;

CAMDEN         CLEAR     63  59  88 CALM      30.06F
TEXARKANA      CLOUDY    68  65  90 SE5       30.06S
6HR MIN TEMP:  66; 6HR MAX TEMP:  78;

EL DORADO      CLEAR     64  62  93 CALM      30.07S
6HR MIN TEMP:  64; 6HR MAX TEMP:  78; 6HR PCP: TRACE;

DE QUEEN       CLEAR     66  65  96 CALM      30.04S FOG
6HR MIN TEMP:  66; 6HR MAX TEMP:  79;

$$

ARZ056-057-069-020700-
SOUTHEAST ARKANSAS

CITY           SKY/WX    TMP DP  RH WIND       PRES   REMARKS
PINE BLUFF     MOCLDY    64  62  93 N3        30.08S
6HR MIN TEMP:  64; 6HR MAX TEMP:  75;

STUTTGART      MOCLDY    66  61  82 MISG      30.08F
6HR MIN TEMP:  66; 6HR MAX TEMP:  73;

MONTICELLO     CLEAR     65  64  97 CALM      30.07S
6HR MIN TEMP:  65; 6HR MAX TEMP:  76;


$$





USA.gov is the U.S. government's official web portal to all federal, state and local government web resources and services.